Overview Statistics Trail Chart Weather Telemetry Raw packets
 

This is the latest recevied weather packets stored in our database for station/object DL2AKT-20. If no packets are shown the sender has not sent any weather packets the latest 10 day(s).

<< 41 42 43 44 45 >>
Time Temp. Humidity Pressure Rain* Wind** Luminosity Snow
1777229795 15° C 32% 1026.6 hPa - - - -
1777228895 15.56° C 32% 1026.5 hPa - - - -
1777227995 15.56° C 31% 1026.4 hPa - - - -
1777227095 16.11° C 32% 1026.4 hPa - - - -
1777226195 16.67° C 31% 1026.3 hPa - - - -
1777225294 17.22° C 31% 1026.2 hPa - - - -
1777224394 16.67° C 31% 1026.2 hPa - - - -
1777223494 17.22° C 30% 1026.2 hPa - - - -
1777222594 17.78° C 29% 1026.3 hPa - - - -
1777221694 17.78° C 29% 1026.3 hPa - - - -
1777220794 17.22° C 29% 1026.4 hPa - - - -
1777219894 17.78° C 29% 1026.4 hPa - - - -
1777218993 18.33° C 29% 1026.5 hPa - - - -
1777218092 17.78° C 29% 1026.5 hPa - - - -
1777217192 18.33° C 28% 1026.4 hPa - - - -
1777216293 18.33° C 28% 1026.5 hPa - - - -
1777215391 19.44° C 29% 1026.5 hPa - - - -
1777214491 18.89° C 28% 1026.7 hPa - - - -
1777213591 18.89° C 29% 1026.7 hPa - - - -
1777212691 19.44° C 27% 1026.8 hPa - - - -
1777211791 18.89° C 31% 1026.7 hPa - - - -
1777210891 18.89° C 29% 1026.9 hPa - - - -
1777210816 19.44° C 30% 1026.8 hPa - - - -
1777210776 19.44° C 30% 1026.8 hPa - - - -
1777210467 19.44° C 27% 1026.9 hPa - - - -

* Rain since midnight (hover to see other rain measurements)
** Current wind speed in m/s (hover to see current wind gust speed)